Location: Wapato
(46.4478°N, 120.4212°W)
Time: 23:25:51
(UTC+00:00)

Vanguard 1 Rocket - Pass Details

Date: 10 May 2026
Orbit: 656 x 4211 km, 34.3° (Epoch: 7 June)

Event Time Altitude Azimuth Distance (km) Brightness Sun altitude
Rises 07:30:20 0° 280° (W) 7,630 12.3 -25.6°
Reaches altitude 10° 07:36:52 10° 269° (W) 6,999 11.9 -25.7°
Maximum altitude 07:53:30 24° 227° (SW) 6,267 11.2 -25.9°
Enters shadow 07:59:01 22° 211° (SSW) 6,336 11.1 -25.9°
